SCP
0 0 0 0 0 0 0 0 0 0 0 0 0 0 0 0 0 0 0 0 -0 -0 -0 -0 -0 -0 -0 -0 -0 -0 -0 -0 -0 -0 -0 -0 -0 -0 -0 -0 -0 -0 -0 -0 -0 -0 -0 -0 -0
0 0 0 0 0 0 0 0 0 0 0 0 0 0 0 0 0 0 -0 0 -0 -0 -0 -0 -0 -0 -0 -0 -0 -0 -0 -0 -0 -0 -0 -0 -0 -0 -0 -0 -0 -0 -0 -0 -0 -0 -0 -0 -0
0 0 0 0 0 0 0 0 0 0 0 0 0 0 0 0 0 -0 0 -0 -0 -0 -0 -0 -0 -0 -0 -0 -0 -0 -0 -0 -0 -0 -0 -0 -0 0 0 0 -0 0 -0 -0 -0 -0 -0 -0 -0
0 0 0 0 0 0 0 0 0 0 0 0 0 0 0 0 0 0 0 0 -0 -0 -0 -0 -0 0 -0 -0 0 0 0 0 0 0 0 0 0 0 0 0 0 0 0 0 0 0 0 0 -0
0 0 0 0 0 0 -0 0 0 0 0 0 0 0 0 0 0 0 0 0 0 0 0 -0 0 0 0 -0 0 0 0 0 0 0 0 0 0 0 0 0 0 0 0 0 0 0 0 0 0
0 0 0 0 0 0 0 0 0 0 0 0 0 0 0 0 0 0 0 0 0 0 0 0 0 0 0 0 0 0 0 0 0 0 0 0 0 0 0 0 0 0 0 0 0 0 0 0 0
0 0 0 0 0 0 0 0 0 0 0 0 0 0 0 0 0 0 0 0 0 0 0 0 0 0 0 0 0 0 0 0 0 0 0 0 0 0 0 0 0 0 0 0 0 0 0 0 0
0 0 0 0 0 0 0 0 0 0 0 0 0 0 0 0 0 0 0 0 0 0 0 0 0 0 0 0 0 0 0 0 0 0 0 0 0 0 0 0 0 0 0 0 0 0 0 0 0
0 0 0 0 0 0 0 0 0 0 0 0 0 0 0 0 0 0 0 0 0 0 0 0 0 0 0 0 0 0 0 0 0 0 0 0 0 0 0 0 0 0 0 0 0 0 0 0 0
0 0 0 0 0 0 0 0 0 0 0 0 0 0 0 0 0 0 0 0 0 0 0 0 0 0 0 0 0 0 0 0 0 0 0 0 0 0 0 0 0 0 0 0 0 0 0 0 0
0 0 0 0 0 0 0 0 0 0 0 0 0 0 0 0 0 0 0 0 0 0 0 0 0 0 0 0 0 0 0 0 0 0 0 0 0 0 0 0 0 0 0 0 0 0 0 0 0
0 0 0 0 0 0 0 0 0 0 0 0 0 0 0 0 0 0 0 0 0 0 0 0 0 0 0 0 0 0 0 0 0 0 0 0 0 0 0 0 0 0 0 0 0 0 0 0 0
0 0 0 0 0 0 0 0 0 0 0 0 0 0 0 0 0 0 0 0 0 0 0 0 0 0 0 0 0 0 0 0 0 0 0 0 0 0 0 0 0 0 0 0 0 0 0 0 0
0 0 0 0 0 0 0 0 0 0 0 0 0 0 0 0 0 0 0 0 0 0 0 0 0 0 0 0 0 0 0 0 0 0 0 0 0 0 0 0 0 0 0 0 0 0 0 0 0
0 0 0 0 0 0 0 0 0 0 0 0 0 0 0 0 0 0 0 0 0 0 0 0 0 0 0 0 0 0 0 0 0 0 0 0 0 0 0 0 0 0 0 0 0 0 0 0 0
0 0 0 0 0 0 0 0 0 0 0 0 0 0 0 0 0 0 0 0 0 0 0 0 0 0 0 0 0 0 0 0 0 0 0 0 0 0 0 0 0 0 0 0 0 0 0 0 0
0 0 0 0 0 0 0 0 0 0 0 0 0 0 0 0 0 0 0 0 0 0 0 0 0 0 0 0 0 0 0 0 0 0 0 0 0 0 0 0 0 0 0 0 0 0 0 0 0
0 0 0 0 0 0 0 0 0 0 0 0 0 0 0 0 0 0 0 0 0 0 0 0 0 0 0 0 0 0 0 0 0 0 0 0 0 0 0 0 0 0 0 0 0 0 0 0 0
0 0 0 0 0 0 0 0 0 0 0 0 0 0 0 0 0 0 0 0 0 0 0 0 0 0 0 0 0 0 0 0 0 0 0 0 0 0 0 0 0 0 0 0 0 0 0 0 0
0 0 0 0 0 0 0 0 0 0 0 0 0 0 0 0 0 0 0 0 0 0 0 0 0 0 0 0 0 0 0 0 0 0 0 0 0 0 0 0 0 0 0 0 0 0 0 0 0
0 0 0 0 0 0 0 0 0 0 0 0 0 0 0 0 0 0 0 0 0 0 0 0 0 0 0 0 0 0 0 0 0 0 0 0 0 0 0 0 0 0 0 0 0 0 0 0 0
0 0 0 0 0 0 0 0 0 0 0 0 0 0 0 0 0 0 0 0 0 0 0 0 0 0 0 0 0 0 0 0 0 0 0 0 0 0 0 0 0 0 0 0 0 0 0 0 0
0 0 0 0 0 0 0 0 0 0 0 0 0 0 0 0 0 0 0 0 0 0 0 0 0 0 0 0 0 0 0 0 0 0 0 0 0 0 0 0 0 0 0 0 0 0 0 0 0
0 0 0 0 0 0 0 0 0 0 0 0 0 0 0 0 0 0 0 0 0 0 0 0 0 0 0 0 0 0 0 0 0 0 0 0 0 0 0 0 0 0 0 0 0 0 0 0 0
0 0 0 0 0 0 0 0 0 0 0 0 0 0 0 0 0 0 0 0 0 0 0 0 0 0 0 0 0 0 0 0 0 0 0 0 0 0 0 0 0 0 0 0 0 0 0 0 0
0 0 0 0 0 0 0 0 0 0 0 0 0 0 0 0 0 0 0 0 0 0 0 0 0 0 0 0 0 0 0 0 0 0 0 0 0 0 0 0 0 0 0 0 0 0 0 0 0
0 0 0 0 0 0 0 0 0 0 0 0 0 0 0 0 0 0 0 0 0 0 0 0 0 0 0 0 0 0 0 0 0 0 0 0 0 0 0 0 0 0 0 0 0 0 0 0 0
0 0 0 0 0 0 0 0 0 0 0 0 0 0 0 0 0 0 0 0 0 0 0 0 0 0 0 0 0 0 0 0 0 0 0 0 0 0 0 0 0 0 0 0 0 0 0 0 0
0 0 0 0 0 0 0 0 0 0 0 0 0 0 0 0 0 0 0 0 0 0 0 0 0 0 0 0 0 0 0 0 0 0 0 0 0 0 0 0 0 0 0 0 0 0 0 0 0
0 0 0 0 0 0 0 0 0 0 0 0 0 0 0 0 0 0 0 0 0 0 0 0 0 0 0 0 0 0 0 0 0 0 0 0 0 0 0 0 0 0 0 0 0 0 0 0 0
Wind_Speed_500mb
15 9 4 2 9 8 7 7 1 10 10 4 8 6 4 5 2 4 13 34 31 44 44 43 39 35 31 30 29 27 23 19 15 11 8 6 5 5 5 5 5 10 13 6 8 18 12 9 8
14 11 7 4 9 12 9 7 15 10 10 16 11 7 6 5 4 5 29 25 35 45 43 44 41 37 32 30 28 25 22 18 14 11 8 7 7 7 4 2 2 5 9 4 3 12 11 14 6
16 17 8 6 6 13 3 10 7 9 15 8 8 1 2 6 6 19 17 29 39 43 40 40 42 38 33 30 28 26 23 18 14 11 9 8 8 7 6 9 3 3 7 5 2 5 7 9 17
17 9 4 9 16 8 4 6 7 15 8 8 5 7 2 7 8 21 28 28 34 41 38 38 40 38 33 29 28 25 23 20 17 12 7 8 6 6 6 12 7 9 11 12 9 8 8 9 15
18 7 7 6 13 6 12 6 7 12 9 10 9 7 5 9 13 31 28 28 30 37 35 37 36 37 35 30 29 27 23 19 15 12 9 6 4 3 4 9 11 13 14 15 16 14 14 13 12
6 4 7 14 11 6 9 10 11 14 9 7 6 4 4 12 18 26 31 26 28 31 36 37 35 33 35 32 30 28 24 20 17 15 9 6 4 2 1 5 9 10 11 14 15 13 16 16 15
4 6 3 4 5 6 5 8 15 15 12 12 3 5 6 13 23 27 28 26 30 32 34 37 37 33 31 31 29 27 24 20 17 16 12 9 6 5 4 5 7 9 11 13 15 14 14 22 18
3 4 7 9 7 3 4 5 2 10 10 6 10 7 7 13 27 29 29 27 30 31 32 33 35 34 31 29 26 23 19 16 14 15 17 15 13 10 10 10 12 15 16 16 17 16 14 18 19
6 5 8 6 11 5 2 7 3 4 7 9 11 5 8 8 26 29 31 33 35 34 34 32 33 32 28 23 22 19 22 20 21 23 23 23 20 17 14 15 17 20 22 22 22 20 17 15 23
8 6 8 1 5 5 3 5 6 7 11 16 13 19 16 12 23 30 33 37 40 39 39 33 29 30 26 22 23 27 29 29 28 27 24 24 21 20 20 22 25 29 31 29 28 27 26 25 24
7 7 4 5 7 6 6 8 8 11 14 23 16 17 23 23 28 30 32 33 41 38 38 35 31 34 28 27 25 26 25 27 26 22 21 23 23 27 30 32 35 34 36 41 35 36 37 37 37
7 10 7 3 4 4 6 5 11 24 19 10 14 20 21 24 29 33 33 33 36 41 38 36 38 37 35 32 28 24 26 30 26 25 28 29 30 32 36 38 39 42 46 43 39 43 46 47 49
10 4 6 7 11 13 14 22 20 28 33 27 30 32 30 29 32 36 35 34 36 39 40 39 40 38 34 32 32 30 31 31 30 28 28 32 34 38 40 45 49 52 52 52 49 48 48 49 51
3 6 12 9 8 9 10 11 2 3 4 11 15 14 18 28 36 37 46 45 47 43 41 40 39 38 34 32 33 34 32 32 32 34 38 40 42 45 44 41 39 40 43 44 49 51 51 52 52
1 10 10 14 7 9 6 16 21 19 20 17 16 14 15 13 35 38 41 46 46 44 43 43 41 38 37 35 34 34 33 34 35 35 32 29 25 23 23 27 31 37 41 45 49 51 52 53 52
4 4 7 6 7 5 9 13 7 10 14 16 5 10 14 11 14 32 41 45 47 48 49 46 40 39 37 36 34 33 32 32 28 24 19 16 17 22 28 35 40 44 46 48 50 52 54 56 57
5 9 11 5 5 5 15 14 5 15 10 18 23 20 23 31 36 32 47 50 49 50 52 52 47 43 39 35 32 30 28 25 22 18 16 19 26 35 42 47 49 49 50 50 52 53 55 57 57
13 11 9 11 6 6 12 33 23 22 28 32 29 25 22 26 31 40 43 59 53 52 51 49 47 42 35 30 26 24 25 22 18 18 24 33 41 46 49 49 49 49 50 51 54 58 60 62 64
5 8 15 6 5 6 23 29 44 27 31 35 28 19 18 22 27 36 40 57 54 53 50 47 43 37 30 27 27 27 25 21 23 30 37 42 46 47 47 48 49 50 53 55 57 60 62 63 61
14 19 16 8 5 6 21 34 43 33 31 22 17 16 16 17 23 42 47 49 52 54 52 47 39 32 28 27 27 27 27 28 31 35 39 42 43 44 45 47 50 52 55 57 58 59 59 59 55
20 24 13 10 3 5 14 30 24 8 13 10 10 14 16 17 26 47 48 55 55 55 50 43 36 32 30 27 25 24 25 27 31 34 35 35 38 42 46 48 51 54 56 58 59 59 57 56 53
23 19 14 10 8 10 3 13 16 12 15 12 11 12 15 21 26 43 51 57 57 55 48 41 36 31 28 24 20 18 21 26 28 29 31 35 38 41 44 48 51 54 56 58 57 56 54 53 51
3 8 12 5 6 6 11 9 9 6 19 21 16 14 20 27 35 47 54 60 58 52 45 38 33 29 23 18 16 21 25 22 22 26 29 31 35 38 40 44 47 49 52 55 55 54 52 52 50
25 16 11 7 4 12 16 17 31 18 19 22 19 19 25 33 39 49 58 59 53 47 41 35 29 23 19 19 20 20 15 17 21 25 31 36 40 44 47 48 48 47 48 50 51 50 49 47 46
10 17 6 8 9 17 7 12 35 5 10 21 29 32 32 37 42 53 57 55 51 44 36 29 23 20 18 18 13 11 12 17 24 28 31 36 40 46 52 56 57 56 49 46 45 46 45 44 45
28 18 12 20 13 8 3 17 11 5 7 15 32 36 36 38 41 50 54 50 41 33 28 25 21 19 16 11 10 11 15 19 23 27 32 38 44 49 53 56 58 58 56 50 45 45 44 43 44
15 20 3 9 3 5 10 12 21 12 10 19 34 39 41 39 44 51 48 41 34 28 26 23 19 16 13 11 10 11 14 17 22 30 38 43 46 49 52 53 55 55 52 47 44 43 40 40 44
9 10 9 6 12 16 12 10 14 21 25 27 31 45 45 41 46 48 45 38 32 28 24 22 20 17 13 10 9 10 15 21 26 31 36 40 44 48 47 46 46 45 45 44 45 47 46 47 50
9 10 10 5 7 8 6 9 4 16 28 36 36 52 51 47 51 49 42 36 30 27 26 23 20 16 11 6 8 12 15 20 25 29 35 40 44 46 45 43 42 40 37 36 41 44 45 48 49
7 18 15 10 12 9 3 11 3 7 22 34 38 42 45 51 48 44 37 34 31 29 26 22 18 13 8 5 9 13 16 20 24 28 34 38 42 42 43 43 44 43 42 39 41 45 45 44 51
Wind_Direction_500mb
241 236 192 220 235 243 234 194 228 176 183 167 128 210 209 38 236 1 167 167 167 172 172 169 172 172 171 171 173 176 175 175 176 185 197 216 234 258 282 315 349 8 355 13 358 6 14 38 196
210 186 158 201 247 233 211 156 201 165 129 126 137 149 180 114 88 119 149 164 164 171 172 171 172 178 176 176 178 178 182 188 194 204 212 240 274 287 275 97 14 26 36 59 18 359 5 8 8
178 167 200 217 223 238 247 178 168 155 161 146 153 226 142 120 150 154 173 164 164 173 173 175 176 180 183 185 189 186 191 200 208 215 237 267 279 279 234 195 217 242 273 1 248 345 327 342 351
151 141 89 230 217 230 250 139 175 154 167 219 194 172 157 174 144 162 167 165 168 176 176 180 180 181 185 192 195 196 199 203 208 222 243 279 290 312 239 203 200 238 247 287 303 305 262 287 320
158 167 186 217 237 252 230 236 211 184 168 173 191 134 141 194 175 172 175 167 174 176 176 182 184 184 188 192 197 201 202 206 209 214 223 255 272 296 238 226 230 244 271 289 297 296 252 284 283
164 200 198 221 226 220 238 212 206 206 185 164 214 183 143 189 168 179 173 179 178 182 182 186 189 189 191 188 194 201 205 208 218 220 220 239 245 254 261 242 244 261 282 299 308 291 257 255 276
205 210 216 195 233 234 186 177 217 202 193 202 182 222 151 184 181 176 175 178 178 182 187 187 191 195 196 200 200 204 211 217 222 222 232 248 256 263 277 283 279 279 281 294 314 320 288 243 275
123 256 184 208 203 199 128 192 253 226 201 204 185 225 155 182 190 184 182 182 180 184 188 190 193 198 202 206 205 209 217 224 231 239 245 248 252 258 262 267 276 283 287 290 295 307 315 247 254
147 238 230 201 186 119 173 216 195 241 238 207 201 195 172 178 190 191 190 189 187 188 188 191 197 197 201 203 206 208 226 238 242 248 247 249 253 257 258 270 285 285 288 291 291 290 290 281 259
216 230 224 151 167 182 191 221 189 221 217 234 222 224 221 206 198 198 196 198 195 192 190 193 193 190 188 203 217 218 223 231 238 245 252 254 256 262 276 278 277 277 277 277 281 286 285 284 278
182 243 168 210 228 240 245 237 211 212 221 233 214 203 220 220 208 204 204 202 205 198 195 192 188 183 199 210 222 226 233 234 236 246 255 260 266 277 283 287 286 288 291 265 266 270 269 265 269
214 231 236 259 220 219 237 274 248 226 238 222 206 224 227 223 220 214 210 203 197 198 196 195 192 195 199 214 220 238 243 247 252 261 264 267 274 277 282 284 282 284 286 284 275 270 267 265 259
230 229 208 245 259 263 266 257 266 261 257 252 250 252 245 240 231 222 212 206 201 198 199 199 196 198 205 212 215 222 237 245 249 257 261 267 269 269 271 275 277 281 279 277 273 270 270 270 268
166 258 261 264 238 251 259 256 253 237 171 204 214 241 246 241 230 225 218 211 207 203 200 200 205 206 210 213 216 224 232 240 247 258 265 267 269 273 277 278 281 284 284 282 279 277 275 273 271
343 293 266 229 230 233 237 246 230 239 238 254 261 263 235 254 218 222 218 212 209 204 198 199 203 208 214 217 222 231 241 247 256 261 261 261 263 270 281 290 293 292 290 285 281 279 278 277 275
221 251 259 130 181 198 219 262 146 153 166 169 253 284 255 237 225 218 214 211 208 206 197 205 209 209 215 222 228 232 240 248 248 244 237 247 269 285 293 296 297 295 292 289 284 281 279 278 278
209 250 216 241 194 197 218 272 155 185 205 265 288 286 268 253 239 223 215 211 208 207 205 204 205 208 214 218 226 236 237 225 213 221 243 269 285 293 297 297 296 294 292 290 286 282 280 279 277
199 219 227 245 159 205 228 259 251 218 276 278 284 281 267 257 242 223 217 208 203 203 202 203 202 203 209 222 228 217 202 202 221 250 274 287 293 296 297 297 296 295 293 292 289 287 284 282 282
148 211 236 215 134 259 245 263 273 264 265 271 272 260 258 254 232 208 205 195 195 195 194 194 196 199 206 207 200 199 207 227 255 275 284 290 295 297 297 296 295 294 292 290 288 286 285 284 285
227 248 245 269 159 247 282 272 275 272 259 254 242 242 244 235 206 188 186 181 184 185 184 185 188 193 196 198 203 214 232 250 267 281 290 296 299 300 301 300 299 298 295 293 290 287 285 284 284
225 227 226 251 155 236 292 273 243 210 210 218 230 236 229 207 187 180 174 176 175 175 176 180 182 187 192 198 210 228 248 268 281 287 292 296 300 304 305 305 304 302 300 297 294 292 289 286 281
241 213 213 183 198 249 292 289 263 217 217 220 210 211 196 178 167 171 169 168 170 170 171 175 181 185 190 202 220 246 270 284 290 296 304 309 309 308 308 307 305 302 299 296 293 291 288 285 284
232 135 157 147 184 338 179 261 230 183 231 218 198 187 174 165 161 158 159 161 164 166 171 173 176 183 197 214 246 277 290 290 297 302 306 310 312 313 312 311 309 306 302 299 295 292 289 287 283
140 107 81 89 128 248 175 212 261 210 224 187 174 175 166 160 155 154 157 160 163 164 167 172 181 194 217 243 265 275 276 291 303 310 314 316 318 318 318 317 315 312 306 299 293 290 288 287 284
196 163 166 216 196 247 127 203 257 224 193 184 171 169 164 161 158 159 160 160 161 164 171 182 197 216 236 261 261 270 287 302 310 315 319 323 327 328 326 323 320 317 312 304 295 290 287 284 282
196 207 214 238 222 243 97 229 247 254 154 162 169 163 160 162 165 164 162 163 166 173 184 196 210 230 244 233 252 278 299 311 319 323 330 335 333 330 324 319 316 314 313 310 302 292 288 287 284
180 218 108 100 78 270 203 252 261 193 176 176 169 166 167 167 166 167 167 170 176 187 192 205 218 209 209 227 259 284 301 316 331 341 340 335 331 327 321 317 314 312 312 312 311 307 303 297 294
236 142 175 206 219 232 213 266 247 199 191 178 175 176 171 167 168 171 175 182 187 194 203 201 193 198 211 230 261 298 325 339 340 336 331 330 329 328 327 326 323 321 320 321 315 310 303 295 293
173 196 228 257 231 253 265 230 189 231 188 181 179 178 175 176 179 182 187 192 197 201 191 189 193 198 208 247 298 322 329 330 328 328 330 331 330 330 328 324 322 322 318 310 305 303 300 296 296
226 222 189 217 216 243 352 267 115 294 183 174 176 177 181 187 188 191 196 199 197 189 193 195 194 199 217 280 308 309 309 313 321 329 332 333 332 329 326 324 319 313 308 303 300 299 299 299 301
Wind_Speed_850mb
15 9 4 2 9 8 7 7 1 10 10 4 8 6 4 5 2 4 13 34 31 44 44 43 39 35 31 30 29 27 23 19 15 11 8 6 5 5 5 5 5 10 13 6 8 18 12 9 8
14 11 7 4 9 12 9 7 15 10 10 16 11 7 6 5 4 5 29 25 35 45 43 44 41 37 32 30 28 25 22 18 14 11 8 7 7 7 4 2 2 5 9 4 3 12 11 14 6
16 17 8 6 6 13 3 10 7 9 15 8 8 1 2 6 6 19 17 29 39 43 40 40 42 38 33 30 28 26 23 18 14 11 9 8 8 7 6 9 3 3 7 5 2 5 7 9 17
17 9 4 9 16 8 4 6 7 15 8 8 5 7 2 7 8 21 28 28 34 41 38 38 40 38 33 29 28 25 23 20 17 12 7 8 6 6 6 12 7 9 11 12 9 8 8 9 15
18 7 7 6 13 6 12 6 7 12 9 10 9 7 5 9 13 31 28 28 30 37 35 37 36 37 35 30 29 27 23 19 15 12 9 6 4 3 4 9 11 13 14 15 16 14 14 13 12
6 4 7 14 11 6 9 10 11 14 9 7 6 4 4 12 18 26 31 26 28 31 36 37 35 33 35 32 30 28 24 20 17 15 9 6 4 2 1 5 9 10 11 14 15 13 16 16 15
4 6 3 4 5 6 5 8 15 15 12 12 3 5 6 13 23 27 28 26 30 32 34 37 37 33 31 31 29 27 24 20 17 16 12 9 6 5 4 5 7 9 11 13 15 14 14 22 18
3 4 7 9 7 3 4 5 2 10 10 6 10 7 7 13 27 29 29 27 30 31 32 33 35 34 31 29 26 23 19 16 14 15 17 15 13 10 10 10 12 15 16 16 17 16 14 18 19
6 5 8 6 11 5 2 7 3 4 7 9 11 5 8 8 26 29 31 33 35 34 34 32 33 32 28 23 22 19 22 20 21 23 23 23 20 17 14 15 17 20 22 22 22 20 17 15 23
8 6 8 1 5 5 3 5 6 7 11 16 13 19 16 12 23 30 33 37 40 39 39 33 29 30 26 22 23 27 29 29 28 27 24 24 21 20 20 22 25 29 31 29 28 27 26 25 24
7 7 4 5 7 6 6 8 8 11 14 23 16 17 23 23 28 30 32 33 41 38 38 35 31 34 28 27 25 26 25 27 26 22 21 23 23 27 30 32 35 34 36 41 35 36 37 37 37
7 10 7 3 4 4 6 5 11 24 19 10 14 20 21 24 29 33 33 33 36 41 38 36 38 37 35 32 28 24 26 30 26 25 28 29 30 32 36 38 39 42 46 43 39 43 46 47 49
10 4 6 7 11 13 14 22 20 28 33 27 30 32 30 29 32 36 35 34 36 39 40 39 40 38 34 32 32 30 31 31 30 28 28 32 34 38 40 45 49 52 52 52 49 48 48 49 51
3 6 12 9 8 9 10 11 2 3 4 11 15 14 18 28 36 37 46 45 47 43 41 40 39 38 34 32 33 34 32 32 32 34 38 40 42 45 44 41 39 40 43 44 49 51 51 52 52
1 10 10 14 7 9 6 16 21 19 20 17 16 14 15 13 35 38 41 46 46 44 43 43 41 38 37 35 34 34 33 34 35 35 32 29 25 23 23 27 31 37 41 45 49 51 52 53 52
4 4 7 6 7 5 9 13 7 10 14 16 5 10 14 11 14 32 41 45 47 48 49 46 40 39 37 36 34 33 32 32 28 24 19 16 17 22 28 35 40 44 46 48 50 52 54 56 57
5 9 11 5 5 5 15 14 5 15 10 18 23 20 23 31 36 32 47 50 49 50 52 52 47 43 39 35 32 30 28 25 22 18 16 19 26 35 42 47 49 49 50 50 52 53 55 57 57
13 11 9 11 6 6 12 33 23 22 28 32 29 25 22 26 31 40 43 59 53 52 51 49 47 42 35 30 26 24 25 22 18 18 24 33 41 46 49 49 49 49 50 51 54 58 60 62 64
5 8 15 6 5 6 23 29 44 27 31 35 28 19 18 22 27 36 40 57 54 53 50 47 43 37 30 27 27 27 25 21 23 30 37 42 46 47 47 48 49 50 53 55 57 60 62 63 61
14 19 16 8 5 6 21 34 43 33 31 22 17 16 16 17 23 42 47 49 52 54 52 47 39 32 28 27 27 27 27 28 31 35 39 42 43 44 45 47 50 52 55 57 58 59 59 59 55
20 24 13 10 3 5 14 30 24 8 13 10 10 14 16 17 26 47 48 55 55 55 50 43 36 32 30 27 25 24 25 27 31 34 35 35 38 42 46 48 51 54 56 58 59 59 57 56 53
23 19 14 10 8 10 3 13 16 12 15 12 11 12 15 21 26 43 51 57 57 55 48 41 36 31 28 24 20 18 21 26 28 29 31 35 38 41 44 48 51 54 56 58 57 56 54 53 51
3 8 12 5 6 6 11 9 9 6 19 21 16 14 20 27 35 47 54 60 58 52 45 38 33 29 23 18 16 21 25 22 22 26 29 31 35 38 40 44 47 49 52 55 55 54 52 52 50
25 16 11 7 4 12 16 17 31 18 19 22 19 19 25 33 39 49 58 59 53 47 41 35 29 23 19 19 20 20 15 17 21 25 31 36 40 44 47 48 48 47 48 50 51 50 49 47 46
10 17 6 8 9 17 7 12 35 5 10 21 29 32 32 37 42 53 57 55 51 44 36 29 23 20 18 18 13 11 12 17 24 28 31 36 40 46 52 56 57 56 49 46 45 46 45 44 45
28 18 12 20 13 8 3 17 11 5 7 15 32 36 36 38 41 50 54 50 41 33 28 25 21 19 16 11 10 11 15 19 23 27 32 38 44 49 53 56 58 58 56 50 45 45 44 43 44
15 20 3 9 3 5 10 12 21 12 10 19 34 39 41 39 44 51 48 41 34 28 26 23 19 16 13 11 10 11 14 17 22 30 38 43 46 49 52 53 55 55 52 47 44 43 40 40 44
9 10 9 6 12 16 12 10 14 21 25 27 31 45 45 41 46 48 45 38 32 28 24 22 20 17 13 10 9 10 15 21 26 31 36 40 44 48 47 46 46 45 45 44 45 47 46 47 50
9 10 10 5 7 8 6 9 4 16 28 36 36 52 51 47 51 49 42 36 30 27 26 23 20 16 11 6 8 12 15 20 25 29 35 40 44 46 45 43 42 40 37 36 41 44 45 48 49
7 18 15 10 12 9 3 11 3 7 22 34 38 42 45 51 48 44 37 34 31 29 26 22 18 13 8 5 9 13 16 20 24 28 34 38 42 42 43 43 44 43 42 39 41 45 45 44 51
Wind_Direction_850mb
241 236 192 220 235 243 234 194 228 176 183 167 128 210 209 38 236 1 167 167 167 172 172 169 172 172 171 171 173 176 175 175 176 185 197 216 234 258 282 315 349 8 355 13 358 6 14 38 196
210 186 158 201 247 233 211 156 201 165 129 126 137 149 180 114 88 119 149 164 164 171 172 171 172 178 176 176 178 178 182 188 194 204 212 240 274 287 275 97 14 26 36 59 18 359 5 8 8
178 167 200 217 223 238 247 178 168 155 161 146 153 226 142 120 150 154 173 164 164 173 173 175 176 180 183 185 189 186 191 200 208 215 237 267 279 279 234 195 217 242 273 1 248 345 327 342 351
151 141 89 230 217 230 250 139 175 154 167 219 194 172 157 174 144 162 167 165 168 176 176 180 180 181 185 192 195 196 199 203 208 222 243 279 290 312 239 203 200 238 247 287 303 305 262 287 320
158 167 186 217 237 252 230 236 211 184 168 173 191 134 141 194 175 172 175 167 174 176 176 182 184 184 188 192 197 201 202 206 209 214 223 255 272 296 238 226 230 244 271 289 297 296 252 284 283
164 200 198 221 226 220 238 212 206 206 185 164 214 183 143 189 168 179 173 179 178 182 182 186 189 189 191 188 194 201 205 208 218 220 220 239 245 254 261 242 244 261 282 299 308 291 257 255 276
205 210 216 195 233 234 186 177 217 202 193 202 182 222 151 184 181 176 175 178 178 182 187 187 191 195 196 200 200 204 211 217 222 222 232 248 256 263 277 283 279 279 281 294 314 320 288 243 275
123 256 184 208 203 199 128 192 253 226 201 204 185 225 155 182 190 184 182 182 180 184 188 190 193 198 202 206 205 209 217 224 231 239 245 248 252 258 262 267 276 283 287 290 295 307 315 247 254
147 238 230 201 186 119 173 216 195 241 238 207 201 195 172 178 190 191 190 189 187 188 188 191 197 197 201 203 206 208 226 238 242 248 247 249 253 257 258 270 285 285 288 291 291 290 290 281 259
216 230 224 151 167 182 191 221 189 221 217 234 222 224 221 206 198 198 196 198 195 192 190 193 193 190 188 203 217 218 223 231 238 245 252 254 256 262 276 278 277 277 277 277 281 286 285 284 278
182 243 168 210 228 240 245 237 211 212 221 233 214 203 220 220 208 204 204 202 205 198 195 192 188 183 199 210 222 226 233 234 236 246 255 260 266 277 283 287 286 288 291 265 266 270 269 265 269
214 231 236 259 220 219 237 274 248 226 238 222 206 224 227 223 220 214 210 203 197 198 196 195 192 195 199 214 220 238 243 247 252 261 264 267 274 277 282 284 282 284 286 284 275 270 267 265 259
230 229 208 245 259 263 266 257 266 261 257 252 250 252 245 240 231 222 212 206 201 198 199 199 196 198 205 212 215 222 237 245 249 257 261 267 269 269 271 275 277 281 279 277 273 270 270 270 268
166 258 261 264 238 251 259 256 253 237 171 204 214 241 246 241 230 225 218 211 207 203 200 200 205 206 210 213 216 224 232 240 247 258 265 267 269 273 277 278 281 284 284 282 279 277 275 273 271
343 293 266 229 230 233 237 246 230 239 238 254 261 263 235 254 218 222 218 212 209 204 198 199 203 208 214 217 222 231 241 247 256 261 261 261 263 270 281 290 293 292 290 285 281 279 278 277 275
221 251 259 130 181 198 219 262 146 153 166 169 253 284 255 237 225 218 214 211 208 206 197 205 209 209 215 222 228 232 240 248 248 244 237 247 269 285 293 296 297 295 292 289 284 281 279 278 278
209 250 216 241 194 197 218 272 155 185 205 265 288 286 268 253 239 223 215 211 208 207 205 204 205 208 214 218 226 236 237 225 213 221 243 269 285 293 297 297 296 294 292 290 286 282 280 279 277
199 219 227 245 159 205 228 259 251 218 276 278 284 281 267 257 242 223 217 208 203 203 202 203 202 203 209 222 228 217 202 202 221 250 274 287 293 296 297 297 296 295 293 292 289 287 284 282 282
148 211 236 215 134 259 245 263 273 264 265 271 272 260 258 254 232 208 205 195 195 195 194 194 196 199 206 207 200 199 207 227 255 275 284 290 295 297 297 296 295 294 292 290 288 286 285 284 285
227 248 245 269 159 247 282 272 275 272 259 254 242 242 244 235 206 188 186 181 184 185 184 185 188 193 196 198 203 214 232 250 267 281 290 296 299 300 301 300 299 298 295 293 290 287 285 284 284
225 227 226 251 155 236 292 273 243 210 210 218 230 236 229 207 187 180 174 176 175 175 176 180 182 187 192 198 210 228 248 268 281 287 292 296 300 304 305 305 304 302 300 297 294 292 289 286 281
241 213 213 183 198 249 292 289 263 217 217 220 210 211 196 178 167 171 169 168 170 170 171 175 181 185 190 202 220 246 270 284 290 296 304 309 309 308 308 307 305 302 299 296 293 291 288 285 284
232 135 157 147 184 338 179 261 230 183 231 218 198 187 174 165 161 158 159 161 164 166 171 173 176 183 197 214 246 277 290 290 297 302 306 310 312 313 312 311 309 306 302 299 295 292 289 287 283
140 107 81 89 128 248 175 212 261 210 224 187 174 175 166 160 155 154 157 160 163 164 167 172 181 194 217 243 265 275 276 291 303 310 314 316 318 318 318 317 315 312 306 299 293 290 288 287 284
196 163 166 216 196 247 127 203 257 224 193 184 171 169 164 161 158 159 160 160 161 164 171 182 197 216 236 261 261 270 287 302 310 315 319 323 327 328 326 323 320 317 312 304 295 290 287 284 282
196 207 214 238 222 243 97 229 247 254 154 162 169 163 160 162 165 164 162 163 166 173 184 196 210 230 244 233 252 278 299 311 319 323 330 335 333 330 324 319 316 314 313 310 302 292 288 287 284
180 218 108 100 78 270 203 252 261 193 176 176 169 166 167 167 166 167 167 170 176 187 192 205 218 209 209 227 259 284 301 316 331 341 340 335 331 327 321 317 314 312 312 312 311 307 303 297 294
236 142 175 206 219 232 213 266 247 199 191 178 175 176 171 167 168 171 175 182 187 194 203 201 193 198 211 230 261 298 325 339 340 336 331 330 329 328 327 326 323 321 320 321 315 310 303 295 293
173 196 228 257 231 253 265 230 189 231 188 181 179 178 175 176 179 182 187 192 197 201 191 189 193 198 208 247 298 322 329 330 328 328 330 331 330 330 328 324 322 322 318 310 305 303 300 296 296
226 222 189 217 216 243 352 267 115 294 183 174 176 177 181 187 188 191 196 199 197 189 193 195 194 199 217 280 308 309 309 313 321 329 332 333 332 329 326 324 319 313 308 303 300 299 299 299 301